Tenerife, Spain

6:14 AM WEST on May 23, 2017 (GMT +0100)
Tenerife

Weather History for GCXO - May, 2017

Change the Weather History Date:

Saturday, May 20, 2017

  Actual Average Record
Temperature  
Mean Temperature 63 °F -  
Max Temperature 68 °F 68 °F 86 °F (2003)
Min Temperature 58 °F 54 °F 51 °F (2006)
Degree Days  
Heating Degree Days 2    
Growing Degree Days 13 (Base 50)    
Moisture  
Dew Point 58 °F    
Average Humidity 88    
Maximum Humidity 100    
Minimum Humidity 73    
Precipitation  
Precipitation 0.00 in - - ()
Sea Level Pressure  
Sea Level Pressure 30.01 in    
Wind  
Wind Speed 15 mph ()    
Max Wind Speed 22 mph    
Max Gust Speed -    
Visibility 5.9 miles    
Events      
Averages and records for this station are not official NWS values.
T = Trace of Precipitation, MM = Missing Value Source: Averaged Metar Reports

Daily Weather History Graph

Daily Weather History Graph

Search for Another Location

Airport or City:

Trip Planner

Search our weather history database for the weather conditions in past years. The results will help you decide how hot, cold, wet, or windy it might be!

Date:

Astronomy

May. 20, 2017 Rise Set
Actual Time 7:12 AM WEST 8:51 PM WEST
Civil Twilight 6:46 AM WEST 9:17 PM WEST
Nautical Twilight 6:15 AM WEST 9:49 PM WEST
Astronomical Twilight 5:42 AM WEST 10:21 PM WEST
Moon 3:27 AM WEST (5/20) 3:19 PM WEST (5/20)
Length of Visible Light 14h 31m
Length of Day
13h 39m
Waning Crescent, 35% of the Moon is Illuminated
May 20
Waning Crescent
May 25
New
Jun 1
First Quarter
Jun 9
Full
Jun 17
Last Quarter

Hourly Weather History & Observations

Time (WEST) Temp. Dew Point Humidity Pressure Visibility Wind Dir Wind Speed Gust Speed Precip Events Conditions
12:00 AM 59.0 °F 57.2 °F 94% 30.04 in 6.2 mi WNW 19.6 mph - N/A   Overcast
12:30 AM 59.0 °F 57.2 °F 94% 30.04 in 6.2 mi WNW 17.3 mph - N/A   Overcast
1:00 AM 60 °F 57 °F 87% 29.99 in 6 mi WNW 16.1 mph - -  
1:00 AM 59.0 °F 57.2 °F 94% 30.01 in 6.2 mi WNW 15.0 mph - N/A   Overcast
1:30 AM 59.0 °F 59.0 °F 100% 30.01 in 3.7 mi WNW 18.4 mph - N/A   Overcast
2:00 AM 59.0 °F 57.2 °F 94% 30.01 in 5.0 mi WNW 18.4 mph - N/A   Overcast
2:30 AM 59.0 °F 57.2 °F 94% 29.98 in 6.2 mi WNW 17.3 mph - N/A   Overcast
3:00 AM 59.0 °F 57.2 °F 94% 29.98 in 5.6 mi WNW 18.4 mph - N/A   Overcast
3:30 AM 59.0 °F 55.4 °F 88% 29.98 in 6.2 mi WNW 19.6 mph - N/A   Overcast
4:00 AM 59.0 °F 55.4 °F 88% 29.98 in 6.2 mi WNW 18.4 mph - N/A   Overcast
4:30 AM 59.0 °F 55.4 °F 88% 29.95 in 6.2 mi WNW 21.9 mph - N/A   Overcast
5:00 AM 59.0 °F 55.4 °F 88% 29.95 in 6.2 mi WNW 19.6 mph - N/A   Overcast
5:30 AM 59.0 °F 57.2 °F 94% 29.98 in 6.2 mi WNW 19.6 mph - N/A   Overcast
6:00 AM 59.0 °F 57.2 °F 94% 29.95 in 6.2 mi WNW 20.7 mph - N/A   Mostly Cloudy
6:30 AM 59.0 °F 55.4 °F 88% 29.95 in 6.2 mi WNW 19.6 mph - N/A   Mostly Cloudy
7:00 AM 59 °F 56 °F 88% 29.94 in 9 mi WNW 16.1 mph - -   Mostly Cloudy
7:00 AM 59.0 °F 55.4 °F 88% 29.98 in 6.2 mi NW 16.1 mph - N/A   Mostly Cloudy
7:30 AM 59.0 °F 55.4 °F 88% 29.98 in 6.2 mi WNW 19.6 mph - N/A   Mostly Cloudy
8:00 AM 59.0 °F 57.2 °F 94% 29.98 in 6.2 mi NW 18.4 mph - N/A   Mostly Cloudy
8:30 AM 59.0 °F 57.2 °F 94% 29.98 in 6.2 mi WNW 16.1 mph - N/A   Mostly Cloudy
9:30 AM 60.8 °F 57.2 °F 88% 30.01 in 6.2 mi NW 18.4 mph - N/A   Mostly Cloudy
10:00 AM 62.6 °F 57.2 °F 82% 30.01 in 6.2 mi NW 18.4 mph - N/A   Mostly Cloudy
10:30 AM 62.6 °F 57.2 °F 82% 30.01 in 6.2 mi WNW 12.7 mph - N/A   Mostly Cloudy
11:00 AM 64.4 °F 57.2 °F 77% 30.01 in 6.2 mi NW 8.1 mph - N/A   Scattered Clouds
11:30 AM 64.4 °F 57.2 °F 77% 30.04 in 6.2 mi NW 12.7 mph - N/A   Mostly Cloudy
12:00 PM 64.4 °F 57.2 °F 77% 30.04 in 6.2 mi WNW 12.7 mph - N/A   Mostly Cloudy
12:30 PM 64.4 °F 57.2 °F 77% 30.04 in 6.2 mi NW 13.8 mph - N/A   Mostly Cloudy
1:00 PM 64.4 °F 57.2 °F 77% 30.04 in 6.2 mi WNW 12.7 mph - N/A   Mostly Cloudy
1:30 PM 66.2 °F 57.2 °F 73% 30.04 in 6.2 mi NW 11.5 mph - N/A   Scattered Clouds
2:00 PM 66.2 °F 59.0 °F 78% 30.04 in 6.2 mi NNW 11.5 mph - N/A   Scattered Clouds
2:30 PM 66.2 °F 57.2 °F 73% 30.04 in 6.2 mi NW 11.5 mph - N/A   Scattered Clouds
3:00 PM 66.2 °F 59.0 °F 78% 30.01 in 6.2 mi NW 8.1 mph - N/A   Scattered Clouds
3:30 PM 68.0 °F 59.0 °F 73% 30.04 in 6.2 mi WNW 10.4 mph - N/A   Scattered Clouds
4:00 PM 65 °F 58 °F 73% 29.96 in 6 mi WNW 12.7 mph - -   Mostly Cloudy
4:00 PM 64.4 °F 59.0 °F 83% 30.01 in 6.2 mi WNW 12.7 mph - N/A   Mostly Cloudy
4:30 PM 62.6 °F 59.0 °F 88% 30.01 in 6.2 mi NW 11.5 mph - N/A   Mostly Cloudy
5:00 PM 62.6 °F 59.0 °F 88% 30.01 in 6.2 mi NW 12.7 mph - N/A   Mostly Cloudy
5:30 PM 62.6 °F 57.2 °F 82% 30.01 in 6.2 mi NW 11.5 mph - N/A   Mostly Cloudy
6:00 PM 62.6 °F 59.0 °F 88% 30.01 in 6.2 mi NW 11.5 mph - N/A   Mostly Cloudy
6:30 PM 62.6 °F 59.0 °F 88% 30.01 in 6.2 mi NW 13.8 mph - N/A   Mostly Cloudy
7:00 PM 62 °F 58 °F 84% 29.97 in 6 mi WNW 18.4 mph - -   Mostly Cloudy
7:30 PM 60.8 °F 59.0 °F 94% 30.01 in 5.6 mi WNW 18.4 mph - N/A   Light Drizzle
8:00 PM 59.0 °F 59.0 °F 100% 30.01 in 5.6 mi WNW 17.3 mph - N/A   Light Drizzle
8:30 PM 59.0 °F 59.0 °F 100% 30.01 in 5.0 mi WNW 19.6 mph - N/A   Light Drizzle
9:00 PM 59.0 °F 59.0 °F 100% 30.04 in 5.0 mi NW 19.6 mph - N/A   Light Drizzle
9:30 PM 59.0 °F 59.0 °F 100% 30.04 in 5.0 mi WNW 20.7 mph - N/A   Light Drizzle
10:00 PM 59 °F 58 °F 97% 30.02 in 4 mi WNW 20.7 mph - -  
10:00 PM 59.0 °F 59.0 °F 100% 30.04 in 4.3 mi WNW 20.7 mph - N/A   Light Drizzle
10:30 PM 59.0 °F 59.0 °F 100% 30.06 in 5.0 mi WNW 18.4 mph - N/A   Light Drizzle
11:00 PM 59.0 °F 59.0 °F 100% 30.06 in 5.0 mi WNW 17.3 mph - N/A   Light Drizzle
11:30 PM 59.0 °F 57.2 °F 94% 30.06 in 4.3 mi NW 19.6 mph - N/A   Overcast